FW0475 Weather Reports


time (UTC)temp
C
wind
direction
speed
KPH
gust
KPH
rain 1hr
cm
rain 24hr
cm
rain mn
cm
humidity
%
barometer
mb
20260507213322 8 211 4.8 9.7 0.00 0.00 0.00 47 1012.5
20260507212837 8 216 6.4 9.7 0.00 0.00 0.00 46 1012.6
20260507212325 8 212 6.4 9.7 0.00 0.00 0.00 46 1012.5
20260507211832 9 208 4.8 9.7 0.00 0.00 0.00 46 1012.4
20260507211329 8 241 4.8 9.7 0.00 0.00 0.00 49 1012.3
20260507210820 8 230 4.8 12.9 0.00 0.00 0.00 48 1012.6
20260507210355 8 273 6.4 12.9 0.00 0.00 0.00 50 1012.8
20260507205840 7 197 6.4 14.5 0.00 0.00 0.00 50 1012.9
20260507205330 7 210 6.4 14.5 0.00 0.00 0.00 48 1013.0
20260507204844 8 217 8.0 12.9 0.00 0.00 0.00 48 1013.1
20260507204330 8 223 4.8 14.5 0.00 0.00 0.00 47 1012.9
20260507203818 8 232 6.4 14.5 0.00 0.00 0.00 46 1012.9
20260507203333 8 261 8.0 12.9 0.00 0.00 0.00 47 1013.0
20260507202830 8 213 6.4 16.1 0.00 0.00 0.00 49 1013.0
20260507202339 8 211 8.0 16.1 0.00 0.00 0.00 47 1013.2
20260507201844 8 216 6.4 12.9 0.00 0.00 0.00 47 1013.2
20260507201341 8 259 6.4 16.1 0.00 0.00 0.00 49 1013.3
20260507200828 8 199 9.7 16.1 0.00 0.00 0.00 46 1013.4
20260507200323 8 221 6.4 14.5 0.00 0.00 0.00 48 1013.4
20260507195833 8 209 8.0 14.5 0.00 0.00 0.00 48 1013.5
20260507195347 8 255 8.0 16.1 0.00 0.00 0.00 47 1013.4
20260507194821 8 233 6.4 12.9 0.00 0.00 0.00 46 1013.5
20260507194319 7 215 6.4 12.9 0.00 0.00 0.00 48 1013.6
20260507193814 7 250 6.4 14.5 0.00 0.00 0.00 51 1013.7
20260507193352 7 236 9.7 14.5 0.00 0.00 0.00 52 1013.8
20260507192824 7 232 8.0 14.5 0.00 0.00 0.00 54 1014.0
20260507192317 7 213 8.0 14.5 0.00 0.00 0.00 56 1014.1
20260507191836 7 214 9.7 14.5 0.00 0.00 0.00 55 1014.1
20260507191329 7 183 9.7 16.1 0.00 0.00 0.00 56 1014.1
20260507190842 7 224 8.0 16.1 0.00 0.00 0.00 58 1014.0
20260507190326 7 216 9.7 16.1 0.00 0.00 0.00 58 1014.2
20260507185821 7 194 9.7 16.1 0.00 0.00 0.00 58 1014.1
20260507185333 7 222 11.3 16.1 0.00 0.00 0.00 56 1014.1
20260507184825 7 219 9.7 17.7 0.00 0.00 0.00 54 1014.1
20260507184340 7 240 8.0 12.9 0.00 0.00 0.00 56 1014.1
20260507183852 7 226 8.0 12.9 0.00 0.00 0.00 50 1014.1
20260507183328 7 215 6.4 12.9 0.00 0.00 0.00 51 1014.1
20260507182824 7 232 6.4 12.9 0.00 0.00 0.00 51 1014.0
20260507182316 7 225 8.0 11.3 0.00 0.00 0.00 49 1014.0
20260507181830 7 205 4.8 9.7 0.00 0.00 0.00 50 1013.9
20260507181321 7 202 4.8 8.0 0.00 0.00 0.00 50 1014.0
20260507180856 7 234 4.8 8.0 0.00 0.00 0.00 51 1014.0
20260507180330 7 221 3.2 8.0 0.00 0.00 0.00 50 1014.0
20260507175825 7 198 4.8 9.7 0.00 0.00 0.00 50 1014.0
20260507175320 7 222 4.8 8.0 0.00 0.00 0.00 50 1014.1
20260507174837 8 257 4.8 8.0 0.00 0.00 0.00 52 1014.0
20260507174335 7 255 3.2 9.7 0.00 0.00 0.00 51 1014.1
20260507173819 7 254 4.8 9.7 0.00 0.00 0.00 53 1014.0
20260507173336 7 240 4.8 9.7 0.00 0.00 0.00 52 1014.2
20260507172828 8 266 4.8 6.4 0.00 0.00 0.00 52 1014.2
20260507172325 8 284 4.8 6.4 0.00 0.00 0.00 53 1014.3
20260507171839 7 303 4.8 9.7 0.00 0.00 0.00 53 1014.4
20260507171331 7 288 6.4 11.3 0.00 0.00 0.00 53 1014.6
20260507170820 8 274 6.4 11.3 0.00 0.00 0.00 52 1014.8
20260507170336 7 272 6.4 12.9 0.00 0.00 0.00 55 1014.9
20260507165827 7 272 6.4 12.9 0.00 0.00 0.00 56 1014.8
20260507165319 7 273 6.4 12.9 0.00 0.00 0.00 56 1015.0
20260507164853 7 273 8.0 12.9 0.00 0.00 0.00 56 1015.0
20260507164318 7 253 6.4 12.9 0.00 0.00 0.00 56 1015.0
20260507163815 7 268 8.0 12.9 0.00 0.00 0.00 56 1015.0
20260507163330 7 283 8.0 12.9 0.00 0.00 0.00 57 1014.9
20260507162844 7 272 6.4 12.9 0.00 0.00 0.00 57 1015.0
20260507162347 7 288 6.4 12.9 0.00 0.00 0.00 57 1015.1
20260507161840 7 258 8.0 12.9 0.00 0.00 0.00 56 1015.1
20260507161352 7 247 8.0 14.5 0.00 0.00 0.00 56 1015.2
20260507160831 7 261 8.0 14.5 0.00 0.00 0.00 57 1015.3
20260507160328 7 242 4.8 12.9 0.00 0.00 0.00 59 1015.3
20260507155821 7 294 4.8 12.9 0.00 0.00 0.00 58 1015.3
20260507155337 7 248 6.4 12.9 0.00 0.00 0.00 59 1015.3
20260507154828 7 262 4.8 12.9 0.00 0.00 0.00 59 1015.2
20260507154325 7 244 8.0 14.5 0.00 0.00 0.00 58 1015.3
20260507153900 7 269 8.0 14.5 0.00 0.00 0.00 57 1015.3
20260507153327 7 245 6.4 12.9 0.00 0.00 0.00 58 1015.2
20260507152852 7 265 6.4 12.9 0.00 0.00 0.00 58 1015.3
20260507152315 7 287 4.8 11.3 0.00 0.00 0.00 58 1015.3
20260507151831 7 259 6.4 12.9 0.00 0.00 0.00 58 1015.3
20260507151322 7 309 6.4 12.9 0.00 0.00 0.00 59 1015.2
20260507150830 7 269 6.4 11.3 0.00 0.00 0.00 59 1015.3
20260507150337 7 277 4.8 12.9 0.00 0.00 0.00 59 1015.3
20260507145832 7 284 6.4 12.9 0.00 0.00 0.00 59 1015.2
20260507145328 7 259 6.4 14.5 0.00 0.00 0.00 61 1015.3
20260507144825 7 300 6.4 14.5 0.00 0.00 0.00 61 1015.2
20260507144443 6 251 6.4 12.9 0.00 0.00 0.00 62 1015.2
20260507143817 6 290 6.4 14.5 0.00 0.00 0.00 60 1015.2
20260507143314 6 276 8.0 14.5 0.00 0.00 0.00 61 1015.3
20260507142831 6 248 6.4 12.9 0.00 0.00 0.00 62 1015.3
20260507142323 6 260 8.0 12.9 0.00 0.00 0.00 62 1015.2
20260507141836 6 316 6.4 12.9 0.00 0.00 0.00 63 1015.2
20260507141328 6 282 8.0 12.9 0.00 0.00 0.00 63 1015.2
20260507140821 6 306 6.4 12.9 0.00 0.00 0.00 63 1015.2
20260507140334 6 289 4.8 12.9 0.00 0.00 0.00 63 1015.2
20260507135849 6 281 6.4 12.9 0.00 0.00 0.00 63 1015.2
20260507135322 6 295 4.8 9.7 0.00 0.00 0.00 62 1015.1
20260507134840 6 280 4.8 9.7 0.00 0.00 0.00 63 1015.1
20260507134327 6 325 4.8 8.0 0.00 0.00 0.00 63 1015.1
20260507133840 6 306 3.2 8.0 0.00 0.00 0.00 63 1015.1
20260507133335 6 313 3.2 8.0 0.00 0.00 0.00 63 1015.2
20260507132820 6 296 4.8 8.0 0.00 0.00 0.00 63 1015.3
20260507132333 6 270 4.8 9.7 0.00 0.00 0.00 64 1015.2
20260507131829 6 281 6.4 8.0 0.00 0.00 0.00 64 1015.1
20260507131323 6 304 4.8 9.7 0.00 0.00 0.00 64 1015.1
20260507130816 6 282 4.8 11.3 0.00 0.00 0.00 64 1015.1
20260507130329 5 304 4.8 11.3 0.00 0.00 0.00 63 1014.9
20260507125822 5 298 4.8 9.7 0.00 0.00 0.00 62 1014.9
20260507125317 5 288 4.8 9.7 0.00 0.00 0.00 62 1014.7
20260507124814 5 305 6.4 9.7 0.00 0.00 0.00 62 1014.6
20260507124324 5 287 4.8 8.0 0.00 0.00 0.00 62 1014.6
20260507123819 5 300 3.2 8.0 0.00 0.00 0.00 62 1014.6
20260507123333 5 301 4.8 8.0 0.00 0.00 0.00 61 1014.5
20260507122843 5 288 4.8 8.0 0.00 0.00 0.00 61 1014.5
20260507122330 5 303 4.8 8.0 0.00 0.00 0.00 63 1014.4
20260507121827 5 260 3.2 8.0 0.00 0.00 0.00 64 1014.4
20260507121345 5 295 4.8 8.0 0.00 0.00 0.00 64 1014.4
20260507120838 5 296 3.2 9.7 0.00 0.00 0.00 65 1014.3
20260507120323 5 299 4.8 9.7 0.00 0.00 0.00 66 1014.3
20260507115831 5 283 4.8 8.0 0.00 0.00 0.00 66 1014.3
20260507115324 5 264 4.8 11.3 0.00 0.00 0.00 67 1014.2
20260507114835 5 260 4.8 11.3 0.00 0.00 0.00 67 1014.2
20260507114326 5 316 3.2 12.9 0.00 0.00 0.00 67 1014.2
20260507113822 5 285 4.8 12.9 0.00 0.00 0.00 67 1014.1
20260507113332 5 265 6.4 12.9 0.00 0.00 0.00 67 1014.2
20260507112827 5 281 6.4 12.9 0.00 0.00 0.00 67 1014.2
20260507112323 5 306 6.4 12.9 0.00 0.00 0.00 67 1014.1
20260507111836 5 260 6.4 12.9 0.00 0.00 0.00 67 1014.1
20260507111325 5 257 4.8 12.9 0.00 0.00 0.00 67 1014.1
20260507110836 5 292 8.0 12.9 0.00 0.00 0.00 67 1014.0
20260507110332 5 299 6.4 12.9 0.00 0.00 0.00 67 1013.9
20260507105839 5 273 6.4 12.9 0.00 0.00 0.00 67 1013.8
20260507105325 5 272 3.2 12.9 0.00 0.00 0.00 67 1013.7
20260507104820 5 261 6.4 12.9 0.00 0.00 0.00 67 1013.7
20260507104330 5 281 8.0 12.9 0.00 0.00 0.00 67 1013.8
20260507103815 5 269 6.4 11.3 0.00 0.00 0.00 67 1013.7
20260507103331 5 252 3.2 9.7 0.00 0.00 0.00 67 1013.7
20260507102845 5 273 4.8 6.4 0.00 0.00 0.00 67 1013.6
20260507102348 5 292 1.6 8.0 0.00 0.00 0.00 66 1013.6
20260507101825 5 290 4.8 8.0 0.00 0.00 0.00 66 1013.5
20260507101351 5 286 3.2 6.4 0.00 0.00 0.00 66 1013.4
20260507100834 5 298 3.2 6.4 0.00 0.00 0.00 66 1013.4
20260507100349 5 296 3.2 6.4 0.00 0.00 0.00 65 1013.5
20260507095820 5 298 3.2 6.4 0.00 0.00 0.00 65 1013.5
20260507095317 5 279 3.2 6.4 0.00 0.00 0.00 65 1013.5
20260507094831 5 296 3.2 8.0 0.00 0.00 0.00 64 1013.4
20260507094340 5 299 3.2 8.0 0.00 0.00 0.00 64 1013.5
20260507093824 5 279 4.8 9.7 0.00 0.00 0.00 64 1013.5
20260507093341 5 281 3.2 9.7 0.00 0.00 0.00 64 1013.5
20260507092825 5 292 3.2 6.4 0.00 0.00 0.00 63 1013.4
20260507092330 5 279 3.2 6.4 0.00 0.00 0.00 63 1013.4
20260507091823 5 302 4.8 6.4 0.00 0.00 0.00 63 1013.4
20260507091318 5 281 4.8 6.4 0.00 0.00 0.00 63 1013.5
20260507090834 5 320 4.8 11.3 0.00 0.00 0.00 63 1013.6
20260507090329 5 296 3.2 11.3 0.00 0.00 0.00 63 1013.5
20260507085829 5 296 3.2 8.0 0.00 0.00 0.00 62 1013.5
20260507085324 5 307 1.6 8.0 0.00 0.00 0.00 62 1013.5
20260507084858 5 296 3.2 8.0 0.00 0.00 0.00 62 1013.5
20260507084352 5 303 4.8 8.0 0.00 0.00 0.00 62 1013.7
20260507083825 5 329 3.2 8.0 0.00 0.00 0.00 62 1013.8
20260507083321 5 298 3.2 12.9 0.00 0.00 0.00 62 1013.8
20260507082830 5 327 4.8 12.9 0.00 0.00 0.00 61 1013.8
20260507082325 6 315 4.8 12.9 0.00 0.00 0.00 61 1013.9
20260507081835 6 328 4.8 12.9 0.00 0.00 0.00 61 1013.8
20260507081325 6 335 4.8 11.3 0.00 0.00 0.00 62 1013.8
20260507080818 6 313 6.4 12.9 0.00 0.00 0.00 61 1013.8
20260507080331 6 285 6.4 12.9 0.00 0.00 0.00 63 1013.8
20260507075820 6 304 3.2 8.0 0.00 0.00 0.00 63 1013.9
20260507075332 6 266 3.2 14.5 0.00 0.00 0.00 63 1013.9
20260507074830 6 284 4.8 14.5 0.00 0.00 0.00 62 1013.9
20260507074336 6 285 4.8 12.9 0.00 0.00 0.00 61 1013.9
20260507073817 6 279 4.8 14.5 0.00 0.00 0.00 63 1013.9
20260507073332 6 316 4.8 14.5 0.00 0.00 0.00 63 1014.0
20260507072828 6 315 6.4 12.9 0.00 0.00 0.00 61 1013.9
20260507072343 6 306 4.8 14.5 0.00 0.00 0.00 62 1013.9
20260507071818 6 297 6.4 14.5 0.00 0.00 0.00 61 1013.9
20260507071315 6 302 4.8 12.9 0.00 0.00 0.00 61 1013.9
20260507070847 6 302 4.8 17.7 0.00 0.00 0.00 61 1014.0
20260507070330 6 283 6.4 17.7 0.00 0.00 0.00 62 1014.0
20260507065826 6 313 6.4 14.5 0.00 0.00 0.00 61 1014.0
20260507065318 6 315 6.4 14.5 0.00 0.00 0.00 60 1014.1
20260507064830 6 282 6.4 14.5 0.00 0.00 0.00 60 1014.1
20260507064326 7 308 8.0 14.5 0.00 0.00 0.00 60 1014.2
20260507063819 7 291 6.4 17.7 0.00 0.00 0.00 60 1014.3
20260507063336 7 307 6.4 17.7 0.00 0.00 0.00 60 1014.3
20260507062825 7 286 4.8 16.1 0.00 0.00 0.00 60 1014.3
20260507062339 7 296 6.4 16.1 0.00 0.00 0.00 59 1014.2
20260507061831 7 292 6.4 16.1 0.00 0.00 0.00 59 1014.3
20260507061326 7 310 6.4 16.1 0.00 0.00 0.00 59 1014.3
20260507060840 7 308 8.0 17.7 0.00 0.00 0.00 60 1014.3
20260507060333 7 306 6.4 17.7 0.00 0.00 0.00 59 1014.3
20260507055842 7 275 6.4 17.7 0.00 0.00 0.00 60 1014.3
20260507055356 7 305 8.0 16.1 0.00 0.00 0.00 59 1014.4
20260507054828 7 289 6.4 16.1 0.00 0.00 0.00 59 1014.4
20260507054338 7 280 8.0 19.3 0.00 0.00 0.00 60 1014.4
20260507053842 7 277 9.7 19.3 0.00 0.00 0.00 60 1014.6
20260507053337 7 286 9.7 19.3 0.00 0.00 0.00 59 1014.4
20260507052824 7 314 6.4 17.7 0.00 0.00 0.00 58 1014.5
20260507052318 7 314 8.0 17.7 0.00 0.00 0.00 60 1014.5
20260507051831 7 303 9.7 17.7 0.00 0.00 0.00 59 1014.5
20260507051317 7 300 9.7 17.7 0.00 0.00 0.00 60 1014.5
20260507050832 7 304 9.7 17.7 0.00 0.00 0.00 59 1014.6
20260507050342 7 298 8.0 17.7 0.00 0.00 0.00 59 1014.6
20260507045829 7 298 9.7 16.1 0.00 0.00 0.00 60 1014.6
20260507045315 7 309 8.0 16.1 0.00 0.00 0.00 60 1014.5
20260507044830 7 283 6.4 14.5 0.00 0.00 0.00 62 1014.5
20260507044339 7 329 6.4 16.1 0.00 0.00 0.00 62 1014.6
20260507043828 7 309 6.4 16.1 0.00 0.00 0.00 62 1014.5
20260507043341 7 282 8.0 16.1 0.00 0.00 0.00 61 1014.4
20260507042832 7 295 6.4 12.9 0.00 0.00 0.00 61 1014.4
20260507042329 7 298 6.4 12.9 0.00 0.00 0.00 61 1014.4
20260507041826 7 284 6.4 17.7 0.00 0.00 0.00 62 1014.4
20260507041329 7 281 11.3 17.7 0.00 0.00 0.00 63 1014.4
20260507040840 7 277 8.0 14.5 0.00 0.00 0.00 62 1014.4
20260507040324 7 311 8.0 14.5 0.00 0.00 0.00 63 1014.4
20260507035843 7 270 6.4 19.3 0.00 0.00 0.00 64 1014.4
20260507035315 7 259 8.0 19.3 0.00 0.00 0.00 64 1014.4
20260507034832 7 281 8.0 19.3 0.00 0.00 0.00 64 1014.3
20260507034326 7 263 12.9 19.3 0.00 0.00 0.00 64 1014.3
20260507033318 7 277 11.3 19.3 0.00 0.00 0.00 64 1014.2
20260507032831 7 273 6.4 14.5 0.00 0.00 0.00 64 1014.2
20260507032320 7 282 8.0 14.5 0.00 0.00 0.00 63 1014.1
20260507031832 7 281 6.4 12.9 0.00 0.00 0.00 63 1014.2
20260507031325 7 259 6.4 12.9 0.00 0.00 0.00 62 1014.2
20260507030837 7 250 4.8 11.3 0.00 0.00 0.00 62 1014.4
20260507030329 7 271 4.8 11.3 0.00 0.00 0.00 62 1014.3
20260507025825 7 266 3.2 6.4 0.00 0.00 0.00 62 1014.3
20260507025338 7 260 1.6 6.4 0.00 0.00 0.00 62 1014.3
20260507024826 7 271 3.2 9.7 0.00 0.00 0.00 62 1014.3
20260507024324 7 267 4.8 11.3 0.00 0.00 0.00 61 1014.4
20260507023819 7 286 6.4 11.3 0.00 0.00 0.00 61 1014.4
20260507023334 7 273 4.8 9.7 0.00 0.00 0.00 61 1014.3
20260507022848 7 263 4.8 12.9 0.00 0.00 0.00 61 1014.3
20260507022320 7 261 4.8 14.5 0.00 0.00 0.00 61 1014.2
20260507021854 7 276 8.0 14.5 0.00 0.00 0.00 60 1014.3
20260507021328 7 205 6.4 11.3 0.00 0.00 0.00 60 1014.2
20260507020824 7 202 4.8 11.3 0.00 0.00 0.00 60 1014.1
20260507020316 7 201 6.4 11.3 0.00 0.00 0.00 61 1014.2
20260507015832 7 258 4.8 11.3 0.00 0.00 0.00 60 1014.2
20260507015327 7 232 4.8 11.3 0.00 0.00 0.00 60 1014.2
20260507014822 7 201 4.8 11.3 0.00 0.00 0.00 60 1014.1
20260507014330 7 199 4.8 12.9 0.00 0.00 0.00 59 1014.2
20260507013846 7 209 6.4 12.9 0.00 0.00 0.00 59 1014.2
20260507013329 7 245 6.4 12.9 0.00 0.00 0.00 59 1014.2
20260507012822 7 227 4.8 12.9 0.00 0.00 0.00 59 1014.1
20260507012337 7 225 6.4 12.9 0.00 0.00 0.00 57 1014.1
20260507011830 7 205 9.7 11.3 0.00 0.00 0.00 57 1014.1
20260507011329 7 218 6.4 11.3 0.00 0.00 0.00 57 1014.1
20260507010842 7 209 4.8 11.3 0.00 0.00 0.00 56 1014.1
20260507010314 7 201 4.8 9.7 0.00 0.00 0.00 56 1014.2
20260507005830 7 250 3.2 9.7 0.00 0.00 0.00 54 1014.2
20260507005340 7 248 4.8 8.0 0.00 0.00 0.00 54 1014.2
20260507004825 7 238 1.6 6.4 0.00 0.00 0.00 54 1014.1
20260507004340 7 269 1.6 6.4 0.00 0.00 0.00 53 1014.1
20260507003831 8 265 3.2 8.0 0.00 0.00 0.00 53 1014.1
20260507003326 8 225 3.2 9.7 0.00 0.00 0.00 53 1014.1
20260507002815 8 203 3.2 9.7 0.00 0.00 0.00 52 1014.0
20260507002352 8 167 3.2 8.0 0.00 0.00 0.00 52 1013.8
20260507001826 8 244 3.2 6.4 0.00 0.00 0.00 53 1013.8
20260507001341 8 192 1.6 4.8 0.00 0.00 0.00 52 1013.8
20260507000828 8 263 0.0 6.4 0.00 0.00 0.00 54 1013.8
20260507000324 8 251 3.2 6.4 0.00 0.00 0.00 52 1013.7
20260506235831 8 191 3.2 6.4 0.00 0.00 0.00 52 1013.7
20260506235344 8 233 1.6 8.0 0.00 0.00 0.00 54 1013.7
20260506234840 8 221 4.8 8.0 0.00 0.00 0.00 53 1013.8
20260506234330 8 223 4.8 9.7 0.00 0.00 0.00 53 1013.8
20260506233843 8 215 3.2 9.7 0.00 0.00 0.00 54 1013.8
20260506233328 8 217 4.8 11.3 0.00 0.00 0.00 53 1013.8
20260506232824 8 210 4.8 11.3 0.00 0.00 0.00 53 1013.8
20260506232338 8 224 3.2 9.7 0.00 0.00 0.00 52 1013.9
20260506231824 8 203 4.8 9.7 0.00 0.00 0.00 55 1013.8
20260506231356 8 227 4.8 9.7 0.00 0.00 0.00 55 1013.9
20260506230821 8 226 4.8 12.9 0.00 0.00 0.00 54 1013.9
20260506230320 8 216 6.4 12.9 0.00 0.00 0.00 53 1013.9
20260506225832 8 195 4.8 11.3 0.00 0.00 0.00 52 1013.9
20260506225320 8 218 6.4 12.9 0.00 0.00 0.00 53 1013.9
20260506224834 8 207 8.0 12.9 0.00 0.00 0.00 52 1014.0
20260506224328 8 211 4.8 14.5 0.00 0.00 0.00 55 1013.8
20260506223819 8 226 6.4 14.5 0.00 0.00 0.00 55 1013.8
20260506223332 8 217 8.0 12.9 0.00 0.00 0.00 52 1013.8
20260506222822 8 243 8.0 16.1 0.00 0.00 0.00 55 1013.8
20260506222318 8 207 8.0 16.1 0.00 0.00 0.00 52 1013.9
20260506221834 8 227 6.4 14.5 0.00 0.00 0.00 53 1013.9
20260506221339 8 219 8.0 16.1 0.00 0.00 0.00 52 1013.8
20260506220827 8 210 8.0 16.1 0.00 0.00 0.00 52 1013.8
20260506220332 8 205 9.7 16.1 0.00 0.00 0.00 52 1013.9
20260506215840 8 219 9.7 14.5 0.00 0.00 0.00 53 1013.9
20260506215326 8 196 8.0 16.1 0.00 0.00 0.00 52 1013.9
20260506214833 8 233 6.4 17.7 0.00 0.00 0.00 53 1013.9
20260506214328 8 256 11.3 17.7 0.00 0.00 0.00 51 1013.8
20260506213822 8 210 9.7 16.1 0.00 0.00 0.00 52 1013.7